Regional Weather Roundup
Issued by NWS Charleston, SC

Current Version | Previous Version | Text Only | Print | Product List | Glossary Off
Versions: 1 2 3 4 5 6 7 8 9 10 11 12 13 14 15 16 17 18 19 20 21 22 23 24 25 26 27 28 29 30 31 32 33 34 35 36 37 38 39 40 41 42 43 44 45 46 47 48 49 50

976
ASUS42 KCHS 091227
RWRCHS

REGIONAL WEATHER ROUNDUP
NATIONAL WEATHER SERVICE CHARLESTON SC
700 AM EST TUE FEB 09 2016

NOTE: "FAIR" INDICATES FEW OR NO CLOUDS BELOW 12,000 FEET WITH NO
SIGNIFICANT WEATHER AND/OR OBSTRUCTIONS TO VISIBILITY.

NOT ALL STATIONS ARE QUALITY CONTROLLED BY THE NATIONAL
WEATHER SERVICE. USE DATA WITH CAUTION...ESPECIALLY
DEWPOINT OBSERVATIONS.

NOTICE: OBSERVATIONS FOR THE SAVANNAH-HILTON HEAD INTERNATIONAL AIRPORT
/KSAV/ HAVE BEEN TEMPORARILY REMOVED DUE TO AN ERRONEOUS TEMPERATURE
SENSOR. THE OBSERVATION WILL BE REINTRODUCED ONCE REPAIRS ARE COMPLETE.

SCZ027-030-031-034>040-042>050-091300-
...SOUTHEAST SOUTH CAROLINA...

CITY           SKY/WX    TMP DP  RH WIND       PRES   REMARKS
N CHARLESTON   CLEAR     36  28  73 W8        29.81R WCI  30
6HR MIN TEMP:  36; 6HR MAX TEMP:  43;

WATERFRONT PRK   N/A     39  31  72 W6        29.65R WCI  35
MOUNT PLEASANT FAIR      37  30  75 W9        29.82R WCI  31
JOHNS ISLAND   FAIR      37  27  65 SW8       29.83R WCI  31
PINOPOLIS        N/A     39  27  60 W15       29.69S WCI  31
MONCKS CORNER  FAIR      34  23  64 W3        29.81R
SUMMERVILLE    NOT AVBL
BEAUFORT MCAS  CLEAR     37  27  67 W8        29.85R WCI  31
6HR MIN TEMP:  37; 6HR MAX TEMP:  43;

BEAUFORT ARPT  FAIR      37  28  70 W8        29.85R WCI  31
HILTON HEAD IS CLEAR     37  30  75 SW8       29.87R WCI  31
WALTERBORO     SUNNY     37  30  75 W8        29.83R WCI  31
ALLENDALE      CLOUDY    36  28  75 CALM      29.83R

...SOUTHERN MIDLANDS AND PEE DEE...

CITY           SKY/WX    TMP DP  RH WIND       PRES   REMARKS
GEORGETOWN     NOT AVBL
KINGSTREE      NOT AVBL
ORANGEBURG     PTCLDY    36  23  59 W9        29.79R WCI  29
6HR MIN TEMP:  35; 6HR MAX TEMP:  41;

BARNWELL       CLOUDY    37  30  75 CALM      29.82R
AIKEN          CLOUDY    34  25  69 W8        29.81R WCI  27
MANNING        FAIR      36  21  55 SW9G17    29.78R WCI  29
COLUMBIA       CLEAR     35  21  56 W9        29.77R WCI  28
6HR MIN TEMP:  35; 6HR MAX TEMP:  39;

SUMTER         CLEAR     34  22  61 W10       29.73S WCI  26
6HR MIN TEMP:  34; 6HR MAX TEMP:  39;

FLORENCE       CLEAR     35  25  66 W13       29.73R WCI  26
6HR MIN TEMP:  35; 6HR MAX TEMP:  41;

MYRTLE BEACH   CLEAR     39  25  56 W12G17    29.76R WCI  32
N MYRTLE BEACH CLEAR     39  28  64 W9G17     29.73R WCI  33
6HR MIN TEMP:  39; 6HR MAX TEMP:  46;


$$

GAZ063-065-086>088-099>101-113>116-118-119-134>141-150-091300-
...SOUTHEAST GEORGIA...

CITY           SKY/WX    TMP DP  RH WIND       PRES   REMARKS
SAVANNAH ARPT  PTCLDY    35  27  72 W9        29.88R WCI  28
6HR MIN TEMP:  35; 6HR MAX TEMP:  41;

HUNTER AAF     CLEAR     35  28  75 SW7       29.86R WCI  29
6HR MIN TEMP:  35; 6HR MAX TEMP:  40;

FORT STEWART   CLEAR     35  28  76 SW7       29.88R WCI  29
6HR MIN TEMP:  34; 6HR MAX TEMP:  42;

STATESBORO     PTCLDY    40  22  48 W6        29.87R WCI  36
SYLVANIA       SUNNY     37  29  73 W6        29.86R WCI  32
CLAXTON        FAIR      38  29  72 SW7       29.89R WCI  32

...CSRA...CENTRAL AND FAR SOUTHEAST GEORGIA...

CITY           SKY/WX    TMP DP  RH WIND       PRES   REMARKS
THOMSON        MOCLDY    37  28  70 W6        29.86R WCI  33
AUGUSTA-BUSH   CLOUDY    38  25  59 SW6       29.82R WCI  33
6HR MIN TEMP:  34; 6HR MAX TEMP:  41;

AUGUSTA-DANIEL CLOUDY    37  24  59 W3        29.81R
SWAINSBORO     CLOUDY    36  27  69 W7        29.87R WCI  30
VIDALIA        MOCLDY    36  28  75 W9G16     29.89R WCI  29
EASTMAN        CLOUDY    38  26  60 W9        29.93R WCI  32
HAZLEHURST     FAIR      37  29  74 SW6       29.90R WCI  32
ALMA           CLEAR     37  27  67 W9        29.93R WCI  30
6HR MIN TEMP:  37; 6HR MAX TEMP:  42;

WAYCROSS       CLEAR     39  30  70 W9        29.96R WCI  33
JESUP          FAIR      37  34  87 W7        29.93R WCI  32
BAXLEY         FAIR      37  28  70 W7        29.92R WCI  32
BRUNSWICK      PTCLDY    39  32  75 W13       29.95R WCI  32
SAINT SIMONS   MOCLDY    40  31  70 W13       29.94R WCI  32
6HR MIN TEMP:  39; 6HR MAX TEMP:  47;


$$

SCZ027-028-034-036>038-045-046-048>050-GAZ119-141-091300-
...LAKE AND SUPPLEMENTAL COASTAL OBSERVATIONS...

STATION/POSITION TIME  TEMP    WIND        PRES    WAVE   SWELL
                       AIR SEA DIR/SP/G            HT/PER HT/PER/DIR
                 (UTC) (F)     (DEG/KT/KT) (MB)    (FT/S) (FT/S/D)
WINYAH BAY       1145   38     260/  9     1007.0R
LAKE MURRAY      1100   37     260/ 10/ 19 1006.8R
ACE BASIN NERRS  1145   37     260/  3     1010.0R
FORT PULASKI     1200   39 52  240/  7/ 11 1011.8R
SAPELO ISLAND    1200   41     240/ 12     1013.0R

$$

ANZ835-935-AMZ111-154-330-350-352-354-370-450-454-472-091300-
...C-MAN AND BUOY OBSERVATIONS...

STATION/POSITION TIME  TEMP    WIND        PRES    WAVE   SWELL
                       AIR SEA DIR/SP/G            HT/PER HT/PER/DIR
                 (UTC) (F)     (DEG/KT/KT) (MB)    (FT/S) (FT/S/D)
BUOY 41004       1150   48 65  270/ 25/ 31 1007.9R   8/ 6   2/13
BUOY 41008       1150   45 54  280/ 21/ 25 1012.0R   4/ 5
FOLLY BEACH CMAN 1200   39     260/  7/ 10 1009.9R
CAPERS NEARSHORE 1108   43     290/ 21/ 29 1007.4R
FRIPP NEARSHORE  1100   44     280/ 19/ 23 1009.9R


STATION/POSITION TIME  TEMP    WIND        PRES    WAVE   SWELL
                       AIR SEA DIR/SP/G            HT/PER HT/PER/DIR
                 (UTC) (F)     (DEG/KT/KT) (MB)    (FT/S) (FT/S/D)
5E ST. MARYS GA  1121      56                N/A     3/18   2/ 90/18
FRYING PAN BUOY  1200   50 63  260/ 27/ 33 1006.0R
BUOY 41025       1150   48 73  290/ 16/ 21 1002.1R  10/14  10/ 70/14
CAPE LOOKOUT NC  NOT AVBL
BUOY 41002       1150   60 69  290/ 31/ 39   N/A    19/ 9   5/320/16
BUOY 41010       1120   62 72              1010.8R
ST AUGUSTINE FL  1200   44 56  280/  9/ 13 1016.5R


$$




USA.gov is the U.S. government's official web portal to all federal, state and local government web resources and services.